Location: Abundant Grace Fellowship
(35.0349°N, 90.0924°W)
Time: 09:27:48
(UTC+00:00)

Cosmos 1140 Rocket - Pass Details

Date: 18 January 2026
Orbit: 739 x 763 km, 74.1° (Epoch: 9 February)

Event Time Altitude Azimuth Distance (km) Brightness Sun altitude
Rises 11:04:15 0° 196° (SSW) 3,156 6.6 -24.9°
Reaches altitude 10° 11:06:35 10° 196° (SSW) 2,237 5.8 -24.4°
Maximum altitude 11:11:39 88° 282° (WNW) 745 3.3 -23.4°
Drops below altitude 10° 11:16:47 10° 17° (NNE) 2,260 6.0 -22.3°
Sets 11:19:09 0° 18° (NNE) 3,190 6.8 -21.9°
